Tracking 18945 objects as of 19-Jan-2018
HD Live streaming from Space Station
objects crossing your sky now

FENGYUN 1C DEB

Track FENGYUN 1C DEB now!
10-day predictions


NORAD ID: 36141
Int'l Code: 1999-025DRN
Perigee: 792.5 km
Apogee: 1,004.6 km
Inclination: 98.5 °
Period: 102.8 minutes
Semi major axis: 7269 km
RCS: 0.0157 m2 (small)
Launch date: May 10, 1999
Source: People's Republic of China (PRC)
Launch site: Taiyaun Space Center, China (TSC)

Note: This is SATELLITE DEBRIS
aabbcc
Your satellite tracking list
Your tracking list is empty




NASA's NSSDC Master Catalog

Two Line Element Set (TLE):
1 36141U 99025DRN 18018.94103840  .00001091  00000-0  69155-3 0  9997
2 36141  98.4805  81.3438 0145878 124.1801 237.3293 14.00684668451134
Source of the keplerian elements: AFSPC